Location: Peebles
(55.6412°N, 3.1714°W)
Time: 22:24:28
(UTC+00:00)

deb Agena D - Pass Details

Date: 21 September 2023
Orbit: 794 x 979 km, 99.8° (Epoch: 28 November)

Event Time Altitude Azimuth Distance (km) Brightness Sun altitude
Rises 04:34:34 0° 19° (NNE) 3,680 10.3 -19.5°
Reaches altitude 10° 04:38:37 10° 352° (N) 2,743 9.2 -19.1°
Maximum altitude 04:41:03 13° 329° (NNW) 2,553 8.7 -18.8°
Drops below altitude 10° 04:43:30 10° 305° (NW) 2,741 8.6 -18.5°
Enters shadow 04:44:39 - 296° (WNW) 2,945 8.7 -18.3°
